DW4207 Weather Reports


Display with metric or nautical units.
time (UTC)temp
F
wind
direction
speed
MPH
gust
MPH
rain 1hr
in
rain 24hr
in
rain mn
in
humidity
%
barometer
mb
20240529061003 56 0 0.0 0.0 0.00 0.00 0.00 83 1014.7
20240529060005 57 0 0.0 0.0 0.00 0.00 0.00 83 1014.7
20240529055004 57 0 0.0 0.0 0.00 0.00 0.00 82 1014.6
20240529054003 57 0 0.0 0.0 0.00 0.00 0.00 82 1014.6
20240529053004 58 0 0.0 0.0 0.00 0.00 0.00 81 1014.6
20240529052004 58 0 0.0 0.0 0.00 0.00 0.00 81 1014.6
20240529051005 58 0 0.0 0.0 0.00 0.00 0.00 80 1014.6
20240529050004 58 0 0.0 0.0 0.00 0.00 0.00 80 1014.6
20240529045004 59 0 0.0 0.0 0.00 0.00 0.00 80 1014.8
20240529044004 59 0 0.0 0.0 0.00 0.00 0.00 79 1014.6
20240529043003 59 0 0.0 0.0 0.00 0.00 0.00 78 1014.6
20240529042004 60 0 0.0 0.0 0.00 0.00 0.00 77 1014.6
20240529041025 60 0 0.0 0.0 0.00 0.00 0.00 76 1014.5
20240529040004 61 0 0.0 0.0 0.00 0.00 0.00 76 1014.4
20240529035053 61 0 0.0 0.0 0.00 0.00 0.00 76 1014.4
20240529032417 62 0 0.0 0.0 0.00 0.00 0.00 74 1014.4
20240529030750 63 0 0.0 0.0 0.00 0.00 0.00 72 1014.4
20240529025227 64 0 0.0 0.0 0.00 0.00 0.00 69 1014.3
20240529021342 64 0 0.0 0.0 0.00 0.00 0.00 70 1013.7
20240529012447 65 0 0.0 0.0 0.00 0.00 0.00 67 1013.2
20240529011016 67 0 0.0 0.0 0.00 0.00 0.00 60 1012.8
20240529005239 70 0 0.0 0.0 0.00 0.00 0.00 60 1012.5
20240529001133 73 0 0.0 0.0 0.00 0.00 0.00 58 1012.6
20240528235845 74 0 0.0 0.0 0.00 0.00 0.00 57 1011.9
20240528233755 74 0 0.0 0.0 0.00 0.00 0.00 56 1012.3
20240528232044 74 0 0.0 0.0 0.00 0.00 0.00 54 1012.3
20240528224255 74 0 0.0 0.0 0.00 0.00 0.00 55 1012.6
20240528223025 74 0 0.0 0.0 0.00 0.00 0.00 56 1012.6
20240528222004 74 0 0.0 0.0 0.00 0.00 0.00 55 1012.7
20240528221024 73 0 0.0 0.0 0.00 0.00 0.00 56 1012.9
20240528220025 73 0 0.0 0.0 0.00 0.00 0.00 56 1012.9
20240528215004 75 0 0.0 0.0 0.00 0.00 0.00 54 1013.1
20240528214003 75 0 0.0 0.0 0.00 0.00 0.00 56 1013.1
20240528213003 75 0 0.0 0.0 0.00 0.00 0.00 54 1013.1
20240528212003 74 0 0.0 0.0 0.00 0.00 0.00 55 1013.1
20240528211003 74 0 0.0 0.0 0.00 0.00 0.00 55 1013.2
20240528210026 74 0 0.0 0.0 0.00 0.00 0.00 58 1013.2
20240528205003 73 0 0.0 0.0 0.00 0.00 0.00 55 1013.3
20240528204004 74 0 0.0 0.0 0.00 0.00 0.00 52 1013.4
20240528203004 74 0 0.0 0.0 0.00 0.00 0.00 52 1013.4
20240528202003 73 0 0.0 0.0 0.00 0.00 0.00 54 1013.5
20240528201003 74 0 0.0 0.0 0.00 0.00 0.00 54 1013.4
20240528200003 75 0 0.0 0.0 0.00 0.00 0.00 54 1013.6
20240528195024 74 0 0.0 0.0 0.00 0.00 0.00 54 1013.7
20240528194003 73 0 0.0 0.0 0.00 0.00 0.00 57 1013.7
20240528193004 74 0 0.0 0.0 0.00 0.00 0.00 56 1013.8
20240528192004 73 0 0.0 0.0 0.00 0.00 0.00 56 1014.0
20240528191024 73 0 0.0 0.0 0.00 0.00 0.00 55 1014.0
20240528190004 73 0 0.0 0.0 0.00 0.00 0.00 56 1014.2
20240528185024 73 0 0.0 0.0 0.00 0.00 0.00 56 1014.1
20240528184004 72 0 0.0 0.0 0.00 0.00 0.00 59 1014.1
20240528183004 71 0 0.0 0.0 0.00 0.00 0.00 59 1014.3
20240528182025 71 0 0.0 0.0 0.00 0.00 0.00 59 1014.4
20240528181025 71 0 0.0 0.0 0.00 0.00 0.00 60 1014.4
20240528180003 72 0 0.0 0.0 0.00 0.00 0.00 61 1014.3
20240528175003 71 0 0.0 0.0 0.00 0.00 0.00 58 1014.3
20240528174004 71 0 0.0 0.0 0.00 0.00 0.00 58 1014.2
20240528173003 71 0 0.0 0.0 0.00 0.00 0.00 58 1014.1
20240528172003 71 0 0.0 0.0 0.00 0.00 0.00 62 1014.0
20240528171003 71 0 0.0 0.0 0.00 0.00 0.00 59 1014.0
20240528170003 70 0 0.0 0.0 0.00 0.00 0.00 63 1013.9
20240528165003 70 0 0.0 0.0 0.00 0.00 0.00 61 1013.9
20240528164004 70 0 0.0 0.0 0.00 0.00 0.00 61 1014.0
20240528163004 70 0 0.0 0.0 0.00 0.00 0.00 61 1014.0
20240528162004 70 0 0.0 0.0 0.00 0.00 0.00 62 1013.8
20240528161004 70 0 0.0 0.0 0.00 0.00 0.00 64 1013.6
20240528160004 69 0 0.0 0.0 0.00 0.00 0.00 67 1013.5
20240528155005 68 0 0.0 0.0 0.00 0.00 0.00 64 1013.4
20240528154025 68 0 0.0 0.0 0.00 0.00 0.00 63 1013.2
20240528153004 68 0 0.0 0.0 0.00 0.00 0.00 65 1013.3
20240528152004 68 0 0.0 0.0 0.00 0.00 0.00 67 1013.0
20240528151003 68 0 0.0 0.0 0.00 0.00 0.00 70 1013.1
20240528150024 67 0 0.0 0.0 0.00 0.00 0.00 69 1013.1
20240528145003 67 0 0.0 0.0 0.00 0.00 0.00 68 1013.2
20240528144003 66 0 0.0 0.0 0.00 0.00 0.00 69 1013.2
20240528143003 66 0 0.0 0.0 0.00 0.00 0.00 69 1013.2
20240528142003 66 0 0.0 0.0 0.00 0.00 0.00 70 1013.2
20240528141003 66 0 0.0 0.0 0.00 0.00 0.00 70 1013.2
20240528140004 66 0 0.0 0.0 0.00 0.00 0.00 72 1013.2
20240528135025 65 0 0.0 0.0 0.00 0.00 0.00 72 1013.2
20240528134003 65 0 0.0 0.0 0.00 0.00 0.00 72 1013.3
20240528133003 64 0 0.0 0.0 0.00 0.00 0.00 74 1013.3
20240528132004 64 0 0.0 0.0 0.00 0.00 0.00 73 1013.5
20240528131003 64 0 0.0 0.0 0.00 0.00 0.00 76 1013.5
20240528130003 63 0 0.0 0.0 0.00 0.00 0.00 77 1013.4
20240528125003 62 0 0.0 0.0 0.00 0.00 0.00 78 1013.2
20240528124005 62 0 0.0 0.0 0.00 0.00 0.00 79 1013.3
20240528123004 61 0 0.0 0.0 0.00 0.00 0.00 81 1013.1
20240528122003 61 0 0.0 0.0 0.00 0.00 0.00 82 1013.1
20240528121003 60 0 0.0 0.0 0.00 0.00 0.00 83 1013.0
20240528120003 60 0 0.0 0.0 0.00 0.00 0.00 83 1013.0
20240528115024 60 0 0.0 0.0 0.00 0.00 0.00 83 1012.8
20240528114003 60 0 0.0 0.0 0.00 0.00 0.00 84 1012.7
20240528113004 59 0 0.0 0.0 0.00 0.00 0.00 84 1012.6
20240528112003 59 0 0.0 0.0 0.00 0.00 0.00 85 1012.6
20240528111003 58 0 0.0 0.0 0.00 0.00 0.00 86 1012.5
20240528110003 58 0 0.0 0.0 0.00 0.00 0.00 86 1012.5
20240528105003 58 0 0.0 0.0 0.00 0.00 0.00 87 1012.3
20240528104025 58 0 0.0 0.0 0.00 0.00 0.00 87 1012.2
20240528103025 57 0 0.0 0.0 0.00 0.00 0.00 87 1012.0
20240528102003 58 0 0.0 0.0 0.00 0.00 0.00 86 1012.0
20240528101003 58 0 0.0 0.0 0.00 0.00 0.00 86 1011.9
20240528100003 58 0 0.0 0.0 0.00 0.00 0.00 86 1011.8
20240528095004 58 0 0.0 0.0 0.00 0.00 0.00 85 1011.7
20240528094004 58 0 0.0 0.0 0.00 0.00 0.00 85 1011.8
20240528093005 59 0 0.0 0.0 0.00 0.00 0.00 85 1011.6
20240528092004 59 0 0.0 0.0 0.00 0.00 0.00 85 1011.6
20240528091026 59 0 0.0 0.0 0.00 0.00 0.00 85 1011.5
20240528090005 59 0 0.0 0.0 0.00 0.00 0.00 85 1011.4
20240528085004 59 0 0.0 0.0 0.00 0.00 0.00 84 1011.3
20240528084004 59 0 0.0 0.0 0.00 0.00 0.00 84 1011.2
20240528083004 59 0 0.0 0.0 0.00 0.00 0.00 84 1011.1
20240528082025 59 0 0.0 0.0 0.00 0.00 0.00 85 1011.0
20240528081004 59 0 0.0 0.0 0.00 0.00 0.00 85 1011.0
20240528080005 59 0 0.0 0.0 0.00 0.00 0.00 86 1010.9
20240528075005 59 0 0.0 0.0 0.00 0.00 0.00 85 1010.8
20240528074004 59 0 0.0 0.0 0.00 0.00 0.00 85 1010.8
20240528073005 59 0 0.0 0.0 0.00 0.00 0.00 85 1010.8
20240528072004 59 0 0.0 0.0 0.00 0.00 0.00 85 1010.7
20240528071026 60 0 0.0 0.0 0.00 0.00 0.00 84 1010.7
20240528070026 60 0 0.0 0.0 0.00 0.00 0.00 84 1010.6
20240528065005 60 0 0.0 0.0 0.00 0.00 0.00 84 1010.6
20240528064004 60 0 0.0 0.0 0.00 0.00 0.00 83 1010.7
20240528063005 61 0 0.0 0.0 0.00 0.00 0.00 82 1010.7
20240528062005 61 0 0.0 0.0 0.00 0.00 0.00 82 1010.5